This demonstration page uses our WeatherBlox Daily Observations layout. Learn more.

Left ArrowRight Arrow

31.84235, -102.49876

Hourly Observations for March 4, 2022

Temp ( °F °C ) Dew Point ( °F °C ) Humidity (%) Winds ( mph kmh ) Pressure ( in mb ) Visibility ( mi km ) Precip ( " mm )
12:53 am 00:53 Clear 61 16 N/A N/A S 12 19 29.98 1015 10 16 0.00 0.00
1:53 am 01:53 Clear 57 14 N/A N/A SSE 9 15 29.97 1015 10 16 0.00 0.00
2:53 am 02:53 Clear 57 14 N/A N/A S 8 13 29.95 1014 10 16 0.00 0.00
3:53 am 03:53 Clear 55 13 N/A N/A S 12 19 29.93 1014 10 16 0.00 0.00
4:53 am 04:53 Clear 54 12 N/A N/A SSE 8 13 29.93 1013 10 16 0.00 0.00
5:53 am 05:53 Clear 54 12 N/A N/A S 8 13 29.93 1014 10 16 0.00 0.00
6:53 am 06:53 Clear 54 12 N/A N/A S 8 13 29.93 1014 9 14 0.00 0.00
7:53 am 07:53 Sunny 54 12 N/A N/A S 9 15 29.95 1014 7 11 0.00 0.00
8:53 am 08:53 Sunny 59 15 N/A N/A S 13 20 29.94 1014 9 14 0.00 0.00
9:53 am 09:53 Sunny 65 18.3 54 12.2 68 68 SSW 20 31 29.96 1014 10 16 0.00 0.00
10:53 am 10:53 Sunny 68 20 53 11.7 59 59 SW 20 31 29.95 1014 10 16 0.00 0.00
11:53 am 11:53 Sunny 72 22.2 52 11.1 50 50 SSW 15 24 29.91 1013 10 16 0.00 0.00
12:53 pm 12:53 Sunny 75 23.9 50 10 41 41 SSW 13 20 29.88 1012 10 16 0.00 0.00
1:53 pm 13:53 Sunny 76 24.4 48 8.9 37 37 SSE 15 24 29.83 1010 10 16 0.00 0.00
2:53 pm 14:53 Sunny 80 26.7 45 7.2 29 29 SSW 15 24 29.78 1009 10 16 0.00 0.00
3:53 pm 15:53 Sunny 82 27.8 42 5.6 24 24 SSW 9 15 29.77 1008 10 16 0.00 0.00
4:53 pm 16:53 Sunny 82 27.8 38 3.3 21 21 SSW 13 20 29.75 1008 10 16 0.00 0.00
5:53 pm 17:53 Sunny 81 27.2 45 7.2 28 28 S 13 20 29.74 1007 10 16 0.00 0.00
6:53 pm 18:53 Clear 75 23.9 51 10.6 43 43 SSE 18 30 29.74 1007 10 16 0.00 0.00
7:53 pm 19:53 Clear 72 22.2 51 10.6 48 48 SSE 20 31 29.75 1007 10 16 0.00 0.00
8:53 pm 20:53 Clear 70 21.1 50 10 49 49 SSE 14 22 29.74 1007 10 16 0.00 0.00
9:53 pm 21:53 Clear 69 20.6 53 11.7 57 57 S 20 31 29.74 1007 10 16 0.00 0.00
10:53 pm 22:53 Clear 68 20 53 11.7 59 59 S 18 30 29.73 1007 9 14 0.00 0.00
11:53 pm 23:53 Clear 67 19.4 53 11.7 61 61 S 25 41 29.71 1006 9 14 0.00 0.00

Powered by AerisWeather